FW8688 Weather Reports


Display with metric or nautical units.
time (UTC)temp
F
wind
direction
speed
MPH
gust
MPH
rain 1hr
in
rain 24hr
in
rain mn
in
humidity
%
barometer
mb
20260902223305 83 221 7.0 16.0 0.00 0.00 0.00 16 1009.6
20260902222805 84 189 9.0 16.0 0.00 0.00 0.00 17 1009.6
20260902222306 84 180 7.0 16.0 0.00 0.00 0.00 17 1009.6
20260902221805 84 205 11.0 18.0 0.00 0.00 0.00 17 1009.6
20260902221305 84 182 9.0 18.0 0.00 0.00 0.00 17 1009.6
20260902215805 83 188 10.0 20.0 0.00 0.00 0.00 18 1009.6
20260902215306 83 174 12.0 16.0 0.00 0.00 0.00 18 1009.6
20260902214305 83 182 7.0 12.0 0.00 0.00 0.00 20 1009.8
20260902213805 83 177 6.0 20.0 0.00 0.00 0.00 22 1010.1
20260902213305 83 205 10.0 17.0 0.00 0.00 0.00 21 1010.1
20260902212805 83 188 12.0 16.0 0.00 0.00 0.00 20 1010.0
20260902212306 83 185 7.0 15.0 0.00 0.00 0.00 20 1010.0
20260902211805 83 218 13.0 20.0 0.00 0.00 0.00 20 1010.0
20260902211305 83 181 13.0 20.0 0.00 0.00 0.00 19 1009.9
20260902210805 83 182 10.0 20.0 0.00 0.00 0.00 19 1010.1
20260902210305 84 198 14.0 22.0 0.00 0.00 0.00 18 1010.1
20260902205805 84 170 11.0 20.0 0.00 0.00 0.00 20 1010.1
20260902205306 83 198 13.0 18.0 0.00 0.00 0.00 20 1010.2
20260902204805 83 193 12.0 20.0 0.00 0.00 0.00 20 1010.2
20260902204305 83 188 13.0 18.0 0.00 0.00 0.00 19 1010.2
20260902203805 83 240 13.0 20.0 0.00 0.00 0.00 20 1010.3
20260902202805 83 193 7.0 12.0 0.00 0.00 0.00 22 1010.3
20260902202306 83 230 14.0 26.0 0.00 0.00 0.00 22 1010.7
20260902201805 83 243 9.0 14.0 0.00 0.00 0.00 22 1010.7
20260902201305 82 221 13.0 18.0 0.00 0.00 0.00 23 1010.7
20260902200805 82 180 11.0 20.0 0.00 0.00 0.00 21 1010.7
20260902200305 82 204 11.0 17.0 0.00 0.00 0.00 23 1010.8
20260902195805 82 193 10.0 17.0 0.00 0.00 0.00 24 1010.8
20260902195306 82 208 12.0 24.0 0.00 0.00 0.00 23 1010.8
20260902194805 82 220 14.0 22.0 0.00 0.00 0.00 22 1010.9
20260902194305 82 174 10.0 22.0 0.00 0.00 0.00 22 1010.9
20260902193805 82 178 11.0 23.0 0.00 0.00 0.00 22 1011.3
20260902193304 81 240 14.0 23.0 0.00 0.00 0.00 20 1011.3
20260902192805 81 212 9.0 20.0 0.00 0.00 0.00 22 1011.3
20260902191305 81 207 16.0 21.0 0.00 0.00 0.00 22 1011.5
20260902190305 81 198 14.0 21.0 0.00 0.00 0.00 22 1011.5
20260902185805 81 193 10.0 16.0 0.00 0.00 0.00 22 1011.8
20260902185307 81 194 10.0 18.0 0.00 0.00 0.00 26 1011.8
20260902184804 81 177 14.0 20.0 0.00 0.00 0.00 26 1011.7
20260902184305 80 198 12.0 20.0 0.00 0.00 0.00 27 1012.3
20260902183805 80 194 11.0 18.0 0.00 0.00 0.00 30 1012.3
20260902182805 79 207 10.0 21.0 0.00 0.00 0.00 29 1012.3
20260902182306 79 192 12.0 21.0 0.00 0.00 0.00 29 1012.3
20260902181805 80 184 12.0 20.0 0.00 0.00 0.00 30 1012.3
20260902181305 80 174 12.0 17.0 0.00 0.00 0.00 30 1012.3
20260902180806 80 188 13.0 20.0 0.00 0.00 0.00 31 1012.3
20260902180305 79 178 12.0 18.0 0.00 0.00 0.00 30 1012.3
20260902175805 79 209 13.0 23.0 0.00 0.00 0.00 32 1012.2
20260902175307 78 175 9.0 18.0 0.00 0.00 0.00 33 1012.4
20260902174805 78 187 14.0 23.0 0.00 0.00 0.00 32 1012.4
20260902173805 79 181 10.0 21.0 0.00 0.00 0.00 35 1012.4
20260902173305 78 184 12.0 20.0 0.00 0.00 0.00 34 1012.4
20260902172805 77 178 12.0 20.0 0.00 0.00 0.00 34 1012.4
20260902172308 77 168 14.0 22.0 0.00 0.00 0.00 34 1012.4
20260902171804 77 169 10.0 17.0 0.00 0.00 0.00 39 1012.6
20260902171305 77 176 12.0 20.0 0.00 0.00 0.00 38 1012.6
20260902170806 76 201 15.0 24.0 0.00 0.00 0.00 34 1012.6
20260902170304 76 204 13.0 24.0 0.00 0.00 0.00 35 1012.5
20260902165805 76 195 12.0 24.0 0.00 0.00 0.00 36 1012.5
20260902164805 75 229 6.0 12.0 0.00 0.00 0.00 40 1012.5
20260902164305 75 182 7.0 12.0 0.00 0.00 0.00 42 1012.5
20260902163805 75 149 6.0 10.0 0.00 0.00 0.00 44 1012.5
20260902163305 75 136 5.0 9.0 0.00 0.00 0.00 44 1012.6
20260902162805 76 160 10.0 21.0 0.00 0.00 0.00 38 1012.6
20260902162307 76 171 11.0 26.0 0.00 0.00 0.00 38 1012.6
20260902161805 75 174 14.0 24.0 0.00 0.00 0.00 39 1012.6
20260902160805 75 154 7.0 13.0 0.00 0.00 0.00 45 1012.5
20260902160305 75 155 5.0 10.0 0.00 0.00 0.00 44 1012.5
20260902155805 74 136 9.0 13.0 0.00 0.00 0.00 44 1012.4
20260902155307 74 156 6.0 9.0 0.00 0.00 0.00 44 1012.5
20260902154805 74 155 7.0 16.0 0.00 0.00 0.00 43 1012.5
20260902153804 74 170 7.0 13.0 0.00 0.00 0.00 43 1012.5
20260902153305 73 155 10.0 16.0 0.00 0.00 0.00 43 1012.3
20260902152805 73 145 9.0 20.0 0.00 0.00 0.00 43 1012.3
20260902152307 73 143 9.0 15.0 0.00 0.00 0.00 45 1012.5
20260902151805 73 146 10.0 17.0 0.00 0.00 0.00 46 1012.5
20260902150804 73 159 8.0 13.0 0.00 0.00 0.00 45 1012.4
20260902150305 72 146 8.0 15.0 0.00 0.00 0.00 45 1012.4
20260902145805 72 143 7.0 15.0 0.00 0.00 0.00 49 1012.4
20260902145306 71 136 8.0 13.0 0.00 0.00 0.00 49 1012.4
20260902144804 72 131 10.0 15.0 0.00 0.00 0.00 48 1012.5
20260902144305 72 137 10.0 16.0 0.00 0.00 0.00 48 1012.5
20260902143305 71 142 10.0 15.0 0.00 0.00 0.00 49 1012.0
20260902142306 69 117 6.0 15.0 0.00 0.00 0.00 53 1012.0
20260902141805 68 124 9.0 16.0 0.00 0.00 0.00 55 1012.0
20260902141305 67 116 9.0 15.0 0.00 0.00 0.00 58 1012.3
20260902135306 66 118 8.0 14.0 0.00 0.00 0.00 61 1012.1
20260902134805 66 124 7.0 13.0 0.00 0.00 0.00 61 1012.1
20260902134304 66 128 8.0 14.0 0.00 0.00 0.00 62 1012.1
20260902133804 66 134 8.0 14.0 0.00 0.00 0.00 62 1012.1
20260902133304 66 118 10.0 18.0 0.00 0.00 0.00 61 1012.1
20260902132805 67 118 8.0 14.0 0.00 0.00 0.00 60 1011.8
20260902132306 68 114 9.0 13.0 0.00 0.00 0.00 58 1011.8
20260902131805 68 113 10.0 14.0 0.00 0.00 0.00 57 1011.7
20260902131304 68 116 12.0 16.0 0.00 0.00 0.00 57 1011.5
20260902125804 69 118 14.0 20.0 0.00 0.00 0.00 53 1011.4
20260902125306 68 117 12.0 21.0 0.00 0.00 0.00 55 1011.4
20260902124805 67 106 9.0 17.0 0.00 0.00 0.00 59 1011.6
20260902124305 67 131 8.0 12.0 0.00 0.00 0.00 60 1011.6
20260902123804 67 134 7.0 14.0 0.00 0.00 0.00 61 1011.6
20260902122305 68 119 9.0 15.0 0.00 0.00 0.00 61 1011.5
20260902121804 68 117 10.0 15.0 0.00 0.00 0.00 61 1011.5
20260902121305 67 129 8.0 12.0 0.00 0.00 0.00 63 1011.5
20260902115805 67 133 9.0 13.0 0.00 0.00 0.00 66 1011.6
20260902115307 67 124 8.0 13.0 0.00 0.00 0.00 66 1011.6
20260902114305 67 125 8.0 12.0 0.00 0.00 0.00 65 1011.5
20260902113305 68 136 6.0 12.0 0.00 0.00 0.00 63 1011.5
20260902112805 68 134 7.0 14.0 0.00 0.00 0.00 63 1011.5
20260902112306 68 139 8.0 14.0 0.00 0.00 0.00 63 1011.4
20260902111804 68 136 8.0 13.0 0.00 0.00 0.00 64 1011.7
20260902111304 68 126 7.0 13.0 0.00 0.00 0.00 64 1011.6
20260902110805 68 133 7.0 12.0 0.00 0.00 0.00 63 1011.1
20260902110305 68 147 6.0 12.0 0.00 0.00 0.00 63 1011.1
20260902105805 68 148 6.0 12.0 0.00 0.00 0.00 63 1011.1
20260902105306 68 148 6.0 10.0 0.00 0.00 0.00 64 1011.0
20260902104805 68 142 6.0 12.0 0.00 0.00 0.00 63 1011.0
20260902104304 68 137 8.0 12.0 0.00 0.00 0.00 65 1011.1
20260902103304 68 138 6.0 12.0 0.00 0.00 0.00 66 1011.3
20260902102805 68 143 7.0 10.0 0.00 0.00 0.00 66 1011.3
20260902102307 68 151 6.0 10.0 0.00 0.00 0.00 66 1011.3
20260902101804 68 143 7.0 12.0 0.00 0.00 0.00 66 1011.3
20260902101305 68 133 6.0 12.0 0.00 0.00 0.00 67 1011.3
20260902100805 68 138 7.0 12.0 0.00 0.00 0.00 67 1011.3
20260902100305 68 147 9.0 14.0 0.00 0.00 0.00 67 1011.3
20260902095805 68 137 8.0 15.0 0.00 0.00 0.00 67 1011.4
20260902095307 68 133 8.0 15.0 0.00 0.00 0.00 67 1011.4
20260902094804 68 148 7.0 12.0 0.00 0.00 0.00 66 1011.3
20260902094304 68 137 6.0 12.0 0.00 0.00 0.00 65 1011.3
20260902093805 68 138 7.0 12.0 0.00 0.00 0.00 65 1011.2
20260902093304 68 129 8.0 12.0 0.00 0.00 0.00 63 1011.2
20260902092804 68 131 8.0 12.0 0.00 0.00 0.00 63 1011.3
20260902092305 68 129 7.0 12.0 0.00 0.00 0.00 64 1011.3
20260902091805 68 129 7.0 13.0 0.00 0.00 0.00 66 1011.3
20260902091305 68 127 7.0 10.0 0.00 0.00 0.00 67 1011.3
20260902090805 68 118 9.0 12.0 0.00 0.00 0.00 67 1011.6
20260902090305 68 123 6.0 12.0 0.00 0.00 0.00 66 1011.6
20260902085805 68 124 8.0 12.0 0.00 0.00 0.00 66 1011.6
20260902084804 69 126 7.0 12.0 0.00 0.00 0.00 66 1011.6
20260902084304 69 132 7.0 12.0 0.00 0.00 0.00 66 1011.7
20260902083805 69 139 7.0 13.0 0.00 0.00 0.00 65 1011.7
20260902083304 69 138 7.0 12.0 0.00 0.00 0.00 65 1011.7
20260902082805 69 128 8.0 14.0 0.00 0.00 0.00 65 1011.9
20260902080305 69 137 6.0 9.0 0.00 0.00 0.00 64 1011.6
20260902075805 69 138 6.0 10.0 0.00 0.00 0.00 65 1011.6
20260902075306 69 135 5.0 9.0 0.00 0.00 0.00 65 1011.6
20260902074805 70 144 6.0 10.0 0.00 0.00 0.00 66 1011.6
20260902074304 70 144 7.0 10.0 0.00 0.00 0.00 65 1011.6
20260902073805 70 140 5.0 12.0 0.00 0.00 0.00 65 1011.6
20260902073304 70 146 6.0 13.0 0.00 0.00 0.00 65 1011.7
20260902072804 70 140 6.0 13.0 0.00 0.00 0.00 65 1011.6
20260902072309 70 135 5.0 9.0 0.00 0.00 0.00 66 1011.6
20260902071304 70 145 6.0 10.0 0.00 0.00 0.00 65 1011.5
20260902070805 70 140 6.0 10.0 0.00 0.00 0.00 64 1011.5
20260902070305 70 141 5.0 9.0 0.00 0.00 0.00 64 1011.5
20260902065804 71 143 7.0 10.0 0.00 0.00 0.00 63 1011.5
20260902065306 71 134 6.0 9.0 0.00 0.00 0.00 62 1011.5
20260902064304 71 163 5.0 7.0 0.00 0.00 0.00 57 1011.4
20260902063804 71 145 5.0 12.0 0.00 0.00 0.00 56 1011.3
20260902062804 72 135 5.0 8.0 0.00 0.00 0.00 55 1011.3
20260902062306 72 152 5.0 8.0 0.00 0.00 0.00 54 1011.3
20260902061805 72 158 6.0 10.0 0.00 0.00 0.00 55 1011.3
20260902060805 72 150 4.0 9.0 0.00 0.00 0.00 55 1011.2
20260902060305 73 157 5.0 8.0 0.00 0.00 0.00 55 1011.2
20260902055805 73 148 5.0 8.0 0.00 0.00 0.00 55 1011.4
20260902054805 73 159 5.0 9.0 0.00 0.00 0.00 53 1011.4
20260902054305 73 177 5.0 8.0 0.00 0.00 0.00 52 1011.4
20260902053805 73 181 6.0 13.0 0.00 0.00 0.00 51 1011.4
20260902053304 73 169 7.0 12.0 0.00 0.00 0.00 52 1011.4
20260902052804 73 166 7.0 13.0 0.00 0.00 0.00 51 1011.4
20260902052306 73 160 7.0 14.0 0.00 0.00 0.00 51 1011.5
20260902051305 73 165 9.0 13.0 0.00 0.00 0.00 52 1011.3
20260902050804 72 152 5.0 8.0 0.00 0.00 0.00 54 1011.3
20260902050304 72 170 5.0 10.0 0.00 0.00 0.00 55 1011.3
20260902045804 72 158 5.0 8.0 0.00 0.00 0.00 56 1011.3
20260902045306 72 155 4.0 7.0 0.00 0.00 0.00 57 1011.3
20260902044804 73 163 3.0 7.0 0.00 0.00 0.00 56 1011.2
20260902043805 73 149 5.0 7.0 0.00 0.00 0.00 54 1011.1
20260902042804 73 141 5.0 10.0 0.00 0.00 0.00 54 1011.1
20260902042308 73 155 3.0 7.0 0.00 0.00 0.00 54 1011.1
20260902041805 73 150 5.0 7.0 0.00 0.00 0.00 55 1011.1
20260902041306 73 173 3.0 7.0 0.00 0.00 0.00 56 1011.1
20260902040804 73 152 5.0 8.0 0.00 0.00 0.00 56 1011.2
20260902035804 73 156 5.0 12.0 0.00 0.00 0.00 57 1011.1
20260902034805 73 150 5.0 9.0 0.00 0.00 0.00 58 1011.1
20260902034305 73 153 5.0 8.0 0.00 0.00 0.00 58 1011.1
20260902033805 73 153 5.0 9.0 0.00 0.00 0.00 59 1011.1
20260902032804 73 166 3.0 7.0 0.00 0.00 0.00 58 1010.6
20260902031305 74 157 4.0 6.0 0.00 0.00 0.00 55 1010.6
20260902030805 74 152 5.0 7.0 0.00 0.00 0.00 55 1010.6
20260902030304 74 135 6.0 9.0 0.00 0.00 0.00 55 1010.7
20260902025804 74 133 6.0 8.0 0.00 0.00 0.00 56 1010.5
20260902025306 74 127 3.0 8.0 0.00 0.00 0.00 56 1010.5
20260902024804 74 134 3.0 7.0 0.00 0.00 0.00 56 1010.4
20260902024305 74 126 4.0 8.0 0.00 0.00 0.00 56 1010.4
20260902023804 74 118 3.0 7.0 0.00 0.00 0.00 56 1010.5
20260902022804 74 123 5.0 8.0 0.00 0.00 0.00 56 1010.5
20260902021805 74 117 6.0 9.0 0.00 0.00 0.00 56 1010.5
20260902021304 75 124 5.0 8.0 0.00 0.00 0.00 56 1010.2
20260902015306 76 134 5.0 7.0 0.00 0.00 0.00 53 1010.2
20260902014804 76 145 5.0 10.0 0.00 0.00 0.00 54 1010.4
20260902014304 76 155 3.0 9.0 0.00 0.00 0.00 54 1010.4
20260902013804 76 140 3.0 5.0 0.00 0.00 0.00 52 1010.4
20260902013305 77 137 3.0 7.0 0.00 0.00 0.00 51 1010.5
20260902012804 77 139 4.0 7.0 0.00 0.00 0.00 50 1010.5
20260902012309 77 141 5.0 9.0 0.00 0.00 0.00 49 1010.4
20260902011804 77 140 6.0 9.0 0.00 0.00 0.00 48 1010.4
20260902011304 77 133 5.0 8.0 0.00 0.00 0.00 48 1010.4
20260902010804 77 151 5.0 9.0 0.00 0.00 0.00 48 1010.4
20260902010305 77 146 5.0 9.0 0.00 0.00 0.00 48 1010.6
20260902005804 77 144 3.0 7.0 0.00 0.00 0.00 46 1010.6
20260902005306 77 167 4.0 7.0 0.00 0.00 0.00 45 1010.8
20260902004304 77 159 5.0 9.0 0.00 0.00 0.00 44 1010.9
20260902003305 78 163 9.0 12.0 0.00 0.01 0.00 44 1011.0
20260902002804 78 160 5.0 12.0 0.00 0.02 0.00 45 1011.0
20260902001805 78 152 5.0 10.0 0.00 0.03 0.00 44 1011.1
20260902001305 78 151 5.0 12.0 0.00 0.04 0.00 44 1011.1
20260902000804 78 134 4.0 8.0 0.00 0.04 0.00 44 1010.9
20260902000305 78 151 6.0 12.0 0.00 0.04 0.00 44 1010.9
20260901235307 78 142 6.0 12.0 0.00 0.04 0.00 42 1011.0
20260901234804 78 140 8.0 12.0 0.00 0.04 0.00 42 1011.0
20260901234304 78 139 7.0 13.0 0.00 0.06 0.00 42 1011.0
20260901233804 79 150 9.0 14.0 0.00 0.06 0.00 41 1011.1
20260901233304 79 119 10.0 14.0 0.00 0.06 0.00 40 1011.1
20260901232805 79 144 7.0 13.0 0.00 0.06 0.00 40 1011.1
20260901231804 79 125 9.0 13.0 0.00 0.06 0.00 40 1011.1
20260901231304 79 136 6.0 13.0 0.00 0.06 0.00 41 1011.2
20260901230305 80 132 6.0 12.0 0.00 0.06 0.00 40 1011.1
20260901225306 78 137 10.0 13.0 0.00 0.06 0.00 40 1011.3
20260901224804 78 131 10.0 14.0 0.00 0.06 0.00 41 1011.5
20260901224304 78 139 7.0 16.0 0.00 0.06 0.00 41 1011.5
20260901223804 78 144 7.0 15.0 0.00 0.06 0.00 42 1011.6